Regional Weather Roundup
Issued by NWS Sterling, VA

Home | Current Version | Previous Version | Graphics & Text | Print | Product List | Glossary On
Versions: 1 2 3 4 5 6 7 8 9 10 11 12 13 14 15 16 17 18 19 20 21 22 23 24 25 26 27 28 29 30 31 32 33 34 35 36 37 38 39 40 41 42 43 44 45 46 47 48 49 50
000
ASUS41 KLWX 171410
RWRLWX

REGIONAL WEATHER ROUNDUP
NATIONAL WEATHER SERVICE BALTIMORE MD/WASHINGTON DC
1000 AM EDT FRI APR 17 2015

Note: "FAIR" indicates few or no clouds below 12,000 feet
with no significant weather and/or obstructions to visibility.
 TC=TEMPERATURE CELSIUS

 * =Non NWS site. Station does not report precipitation (e.g. rain,
    snow, etc.), thunder, or fog.

DCZ001-MDZ009-015-VAZ040>042-051-053>054-171500-
WASHINGTON METRO

CITY           SKY/WX    TMP DP  RH WIND       PRES   REMARKS
WASHINGTON NAT MOSUNNY   67  57  70 SW12      30.10F
DULLES         MOSUNNY   64  56  75 SW7       30.09F
ANDREWS AFB    MOSUNNY   66  57  74 SW14      30.09F
FT BELVOIR     MOSUNNY   64  57  79 S8        30.09F
QUANTICO       MOSUNNY   62  56  80 S10       30.11F
COLLEGE PARK*  MOSUNNY   64  57  77 S5        30.09F
LEESBURG*      MOSUNNY   64  59  82 SW7       30.10S
MANASSAS*      SUNNY     66  59  77 CALM      30.09F
GAITHERSBURG*  MOSUNNY   63  57  82 SW3       30.13S

$$

MDZ006>007-011-014-171500-
BALTIMORE METRO

CITY           SKY/WX    TMP DP  RH WIND       PRES   REMARKS
BWI AIRPORT    PTSUNNY   65  58  78 SW9       30.09S
MD SCIENCE CTR   N/A     63  56  78 MISG      30.12F
MARTIN STATE   PTSUNNY   61  59  94 E5        30.12F
ANNAPOLIS      MOSUNNY   60  55  83 SE7       30.09F
FORT MEADE*    MOSUNNY   64  55  72 SW10      30.11S

$$

MDZ012-015-019>023-171500-
MARYLAND EASTERN SHORE

CITY           SKY/WX    TMP DP  RH WIND       PRES   REMARKS
OCEAN CITY     CLOUDY    63  56  78 SW13      30.13F
SALISBURY      CLOUDY    64  57  78 S14       30.11F
BAY BRIDGE AP*   N/A     61  57  88 S8        30.10F
CAMBRIDGE*     PTSUNNY   61  55  82 SW6       30.11F
EASTON*        CLOUDY    61  61 100 SW6       30.14F

$$

MDZ017>025-171500-
SOUTHERN MARYLAND

CITY           SKY/WX    TMP DP  RH WIND       PRES   REMARKS
PATUXENT RIVER PTSUNNY   63  58  83 S12       30.11F
ST INIGOES     CLOUDY    60  57  89 S7        30.11F
LEONARDTOWN*   MOSUNNY   63  55  77 SW8       30.12F

$$

MDZ003>005-171500-
NORTH CENTRAL MARYLAND

CITY           SKY/WX    TMP DP  RH WIND       PRES   REMARKS
FREDERICK*     MOSUNNY   63  54  72 SW6       30.12F
HAGERSTOWN APT PTSUNNY   59  53  80 SW5       30.08F
WESTMINSTER*   PTSUNNY   59  55  88 SW9       30.09S

$$

MDZ501>502-171500-
WESTERN MARYLAND

CITY           SKY/WX    TMP DP  RH WIND       PRES   REMARKS
OAKLAND*       CLOUDY    52 N/A N/A SW7       30.12R FOG
CUMBERLAND*    CLOUDY    54  54 100 CALM      30.12F

$$

VAZ025>031-171500-
SHENANDOAH VALLEY

CITY           SKY/WX    TMP DP  RH WIND       PRES   REMARKS
WINCHESTER*    MOSUNNY   64  52  63 S9        30.08S
FRONT ROYAL*   NOT AVBL
LURAY*         FAIR      68  57  68 SW12      30.09F
NEW MARKET*    FAIR      63  55  76 SW8       30.08F
STAUNTON*      SUNNY     64  56  73 S6        30.12F
WAYNESBORO*    FAIR      62  55  78 SW14      30.12F

$$

WVZ021-048>050-054>055-171500-
EASTERN WEST VIRGINIA PANHANDLE

CITY           SKY/WX    TMP DP  RH WIND       PRES   REMARKS
MARTINSBURG    MOSUNNY   63  55  75 CALM      30.08F
PETERSBURG*    MOSUNNY   68  54  61 CALM      30.09S

$$

VAZ036>039-050-171500-
CENTRAL FOOTHILLS

CITY           SKY/WX    TMP DP  RH WIND       PRES   REMARKS
CHARLOTTESVILL SUNNY     66  57  72 S8        30.09F
CULPEPER*      NOT AVBL
ORANGE*        SUNNY     66  59  77 S12       30.11F
GORDONSVILLE*  NOT AVBL
WARRENTON*     FAIR      68  60  77 SW5       30.09F

$$

VAZ055>057-171500-
NORTH AND CENTRAL PIEDMONT

CITY           SKY/WX    TMP DP  RH WIND       PRES   REMARKS
FREDERICKSBRG* SUNNY     66  60  80 SW6       30.10F
STAFFORD*      SUNNY     65  65 100 SW8       30.13F

$$

NCZ024-NYZ072-PAZ021-071-VAZ022-071-171500-
OTHER REGIONAL OBSERVATIONS

CITY           SKY/WX    TMP DP  RH WIND       PRES   REMARKS
NEW YORK CITY  CLOUDY    58  52  80 SW13G23   30.09F
PHILADELPHIA   CLOUDY    58  55  90 SW10      30.09F
PITTSBURGH     PTSUNNY   60  53  77 SW7       30.07S
ROANOKE        MOSUNNY   60  55  83 CALM      30.16F
RICHMOND       PTSUNNY   61  57  87 S6        30.13F
RALEIGH        LGT RAIN  62  58  86 CALM      30.17S

$$

ANZ530>537-171500-
MARINE OBSERVATIONS

STATION/POSITION TIME  TEMP    WIND        PRES
                       AIR SEA DIR/SP/G
                 (UTC) (F)     (DEG/KT/KT) (MB)
THOMAS PT LIGHT  NOT AVBL
BALT KEY BRIDGE  1300   59      CALM  /  1 1019.3F
COVE POINT       1300   53     180/  6/  7 1019.9F
LEWISETTA        1300   60 58              1020.0F
SOLOMONS ISLAND  1300      54                N/A
PINEY POINT      1312          180/  6/  7   N/A

$$




USA.gov is the U.S. government's official web portal to all federal, state and local government web resources and services.